Location: Sauerland
(51.1981°N, 7.8053°E)
Time: 06:09:39
(UTC+01:00)

ISS - Visible Passes

Search period start: 17 February 2026 00:00
Search period end: 27 February 2026 00:00
Orbit: 413 x 428 km, 51.6° (Epoch: 16 February)

Date Brightness Start Highest point End Pass type
(mag) Time Alt. Az. Time Alt. Az. Time Alt. Az.
17 Feb -2.3 05:39:34 25° S 05:40:34 30° SSE 05:43:33 10° E visible
18 Feb -1.3 04:54:28 20° ESE 04:54:28 20° ESE 04:56:14 10° E visible
18 Feb -3.6 06:27:27 16° WSW 06:30:03 72° SSE 06:33:23 10° E visible
19 Feb -3.4 05:42:15 45° SSW 05:42:56 57° SSE 05:46:14 10° E visible
20 Feb -1.9 04:56:58 30° ESE 04:56:58 30° ESE 04:59:01 10° E visible
20 Feb -3.8 06:29:57 16° W 06:32:32 84° N 06:35:54 10° E visible
21 Feb -0.3 04:11:37 11° E 04:11:37 11° E 04:11:44 10° E visible
21 Feb -3.9 05:44:36 52° WSW 05:45:20 87° S 05:48:41 10° E visible
22 Feb -2.4 04:59:12 39° E 04:59:12 39° E 05:01:29 10° E visible
22 Feb -3.8 06:32:11 14° W 06:34:59 82° N 06:38:20 10° E visible
23 Feb -0.5 04:13:46 13° E 04:13:46 13° E 04:14:14 10° E visible
23 Feb -3.8 05:46:45 43° W 05:47:44 81° N 05:51:05 10° E visible
24 Feb -2.8 05:01:17 48° ENE 05:01:17 48° ENE 05:03:49 10° E visible
24 Feb -3.8 06:34:15 12° W 06:37:20 79° SSW 06:40:40 10° ESE visible
25 Feb -0.7 04:15:49 15° E 04:15:49 15° E 04:16:33 10° E visible
25 Feb -3.9 05:48:47 35° W 05:50:03 89° N 05:53:24 10° E visible
26 Feb -3.2 05:03:19 58° E 05:03:19 58° E 05:06:05 10° E visible
26 Feb -3.3 06:36:17 10° W 06:39:30 48° SSW 06:42:43 10° SE visible
